Flag for U.S.A. Weather past 2 weeks in Washington DC, District of Columbia, U.S.A.

Now
70 °F

Passing clouds.


Feels Like: 74 °F
Forecast: 60 / 83 °F
Wind: No wind

Location: Reagan National Airport

Current Time: Aug 28, 2015 at 9:46:27 AM

Latest Report: Aug 28, 2015 at 8:52 AM


Visibility: 10 mi

Pressure: 30.21 "Hg

Humidity: 68%

Dew point: 59 °F

Location of Washington DCLocation

Historic Weather in Washington DC — Graph

°F

Washington DC temperature yesterday

Maximum temperature yesterday: 82 °F (at 3:52 PM)
Minimum temperature yesterday: 63 °F (at 5:52 AM)
Average temperature yesterday: 73 °F

Past Weeks' High & Low Weather Summary

 TemperatureHumidityPressure
High95 °F (Aug 17, 1:52 PM)94% (Aug 20, 4:52 AM)30.22 "Hg (Aug 20, 4:52 AM)
Low63 °F (Aug 27, 5:52 AM)26% (Aug 13, 3:52 PM)29.81 "Hg (Aug 24, 5:52 PM)
Average78 °F62%30.04 "Hg
* Reported Aug 13 8:52 AM — Aug 28 8:52 AM, Washington DC, Weather by CustomWeather, © 2015

Note: Actual official high and low records may vary slightly from our data, if they occured in-between our weather recording intervals... More about our weather records

Advertising

Washington DC weather history for previous 24 hours

 ConditionsComfort  
Time TempWeatherWind HumidityBarometerVisibility
8:52 AM
Fri, Aug 28
70 °FPassing clouds.No wind68%30.21 "Hg10 mi
7:52 AM69 °FScattered clouds.No wind73%30.19 "Hg10 mi
6:52 AM66 °FPassing clouds.5 mph81%30.17 "Hg10 mi
5:52 AM66 °FPassing clouds.No wind78%30.16 "Hg10 mi
4:52 AM65 °FPassing clouds.6 mph81%30.15 "Hg10 mi
3:52 AM68 °FPassing clouds.3 mph78%30.15 "Hg10 mi
2:52 AM68 °FPassing clouds.3 mph76%30.16 "Hg10 mi
1:52 AM68 °FPassing clouds.3 mph76%30.16 "Hg10 mi
12:52 AM71 °FPassing clouds.No wind66%30.17 "Hg10 mi
11:52 PM
Thu, Aug 27
72 °FPassing clouds.No wind61%30.16 "Hg10 mi
10:52 PM75 °FPassing clouds.3 mph54%30.16 "Hg10 mi
9:52 PM73 °FClear.6 mph59%30.14 "Hg10 mi
8:52 PM75 °FPassing clouds.7 mph52%30.12 "Hg10 mi
7:52 PM76 °FScattered clouds.8 mph48%30.10 "Hg10 mi
6:52 PM78 °FScattered clouds.7 mph43%30.09 "Hg10 mi
5:52 PM80 °FPartly sunny.7 mph42%30.09 "Hg10 mi
4:52 PM81 °FBroken clouds.12 mph41%30.08 "Hg10 mi
3:52 PM82 °FPartly sunny.6 mph38%30.08 "Hg10 mi
2:52 PM79 °FPartly sunny.5 mph42%30.09 "Hg10 mi
1:52 PM80 °FPartly sunny.7 mph41%30.11 "Hg10 mi
12:52 PM78 °FScattered clouds.6 mph45%30.12 "Hg10 mi
11:52 AM77 °FScattered clouds.No wind47%30.14 "Hg10 mi
10:52 AM75 °FPartly sunny.9 mph48%30.15 "Hg10 mi
9:52 AM73 °FPartly sunny.13 mph53%30.13 "Hg10 mi
Weather by CustomWeather, © 2015

See weather overviewHow to use our weather pages